Weather History for CWZG - January, 2013

Change the Weather History Date:

Tuesday, January 1, 2013

  Actual Average Record
Temperature  
Mean Temperature 16 °F -  
Max Temperature 21 °F - - ()
Min Temperature 10 °F - - ()
Degree Days  
Heating Degree Days 50    
Moisture  
Dew Point 8 °F    
Average Humidity 73    
Maximum Humidity 80    
Minimum Humidity 57    
Precipitation  
Precipitation 0.00 in - - ()
Sea Level Pressure  
Sea Level Pressure 30.41 in    
Wind  
Wind Speed 8 mph ()    
Max Wind Speed 13 mph    
Max Gust Speed 22 mph    
T = Trace of Precipitation, MM = Missing Value Source: Averaged Metar Reports

Daily Weather History Graph

Daily Weather History Graph

Search for Another Location

Airport or City:

Trip Planner

Search our weather history database for the weather conditions in past years. The results will help you decide how hot, cold, wet, or windy it might be!

Date:

Astronomy

Jan. 01, 2013 Rise Set
Actual Time 8:46 AM MST 4:45 PM MST
Civil Twilight 8:06 AM MST 5:25 PM MST
Nautical Twilight 7:24 AM MST 6:08 PM MST
Astronomical Twilight 6:43 AM MST 6:48 PM MST
Moon 9:55 PM MST (1/1) 10:29 AM MST (1/1)
Length of Visible Light 9h 18m
Length of Day
7h 59m
Waning Gibbous, 83% of the Moon is Illuminated
Jan 1
Waning Gibbous
Jan 4
Last Quarter
Jan 11
New
Jan 18
First Quarter
Jan 26
Full

Hourly Weather History & Observations

Time (MST) Temp. Windchill Dew Point Humidity Pressure Visibility Wind Dir Wind Speed Gust Speed Precip Events Conditions
12:00 AM 19.0 °F 6.1 °F 11.5 °F 72% 30.28 in - SW 12.7 mph 21.9 mph N/A   Unknown
1:00 AM 18.0 °F 6.1 °F 10.9 °F 74% 30.27 in - SW 10.4 mph 19.6 mph N/A   Unknown
2:00 AM 16.5 °F 6.9 °F 10.6 °F 77% 30.27 in - West 6.9 mph - N/A   Unknown
3:00 AM 16.3 °F 7.8 °F 10.2 °F 77% 30.29 in - WSW 5.8 mph - N/A   Unknown
4:00 AM 16.0 °F 10.4 °F 9.7 °F 76% 30.32 in - SW 3.5 mph - N/A   Unknown
5:00 AM 15.4 °F 1.6 °F 9.3 °F 77% 30.34 in - WSW 12.7 mph 20.7 mph N/A   Unknown
6:00 AM 14.7 °F 3.8 °F 8.8 °F 77% 30.36 in - WSW 8.1 mph - N/A   Unknown
7:00 AM 13.1 °F 2.8 °F 7.7 °F 79% 30.38 in - SW 6.9 mph - N/A   Unknown
8:00 AM 12.2 °F -0.2 °F 7.0 °F 80% 30.39 in - SW 9.2 mph - N/A   Unknown
9:00 AM 12.0 °F -1.3 °F 6.6 °F 79% 30.42 in - SW 10.4 mph 18.4 mph N/A   Unknown
10:00 AM 12.2 °F -2.5 °F 6.1 °F 76% 30.44 in - SW 12.7 mph 20.7 mph N/A   Unknown
11:00 AM 15.6 °F 4.0 °F 6.1 °F 66% 30.44 in - SW 9.2 mph - N/A   Unknown
12:00 PM 17.8 °F 8.5 °F 5.7 °F 59% 30.43 in - WSW 6.9 mph - N/A   Unknown
1:00 PM 19.4 °F 7.2 °F 7.3 °F 60% 30.42 in - WSW 11.5 mph - N/A   Unknown
2:00 PM 20.7 °F 11.0 °F 7.7 °F 57% 30.41 in - SW 8.1 mph - N/A   Unknown
3:00 PM 21.2 °F 10.1 °F 8.1 °F 57% 30.42 in - WSW 10.4 mph - N/A   Unknown
4:00 PM 17.4 °F 8.0 °F 8.4 °F 68% 30.45 in - WSW 6.9 mph - N/A   Unknown
5:00 PM 16.2 °F 6.5 °F 8.2 °F 71% 30.48 in - WSW 6.9 mph - N/A   Unknown
6:00 PM 13.6 °F 7.7 °F 7.0 °F 75% 30.51 in - WSW 3.5 mph - N/A   Unknown
7:00 PM 12.9 °F 5.2 °F 6.4 °F 75% 30.54 in - WSW 4.6 mph - N/A   Unknown
8:00 PM 10.8 °F 4.5 °F 5.5 °F 79% 30.56 in - West 3.5 mph - N/A   Unknown
9:00 PM 11.7 °F 3.7 °F 6.3 °F 79% 30.56 in - West 4.6 mph - N/A   Unknown
10:00 PM 11.1 °F 0.4 °F 5.9 °F 80% 30.56 in - WSW 6.9 mph - N/A   Unknown